Powrót do katalogu

GAOFEN 12 (02)

AktywnyNaukaSSO
NORAD 48079·PAYLOAD·🇨🇳 China

Wystrzelony Mar 30, 2021 z Jiuquan Satellite Launch Center

Loading…

Następne Przeloty (najbliższe 24 godziny)

TLE

ŚwieżeSource: Space-Track

Epoka: Sep 14, 2026, 15:39 UTC

1 48079U 21026A   26257.65246301  .00000258  00000-0  40782-4 0  9998
2 48079  97.9996 255.4996 0003764 319.1048  40.9881 14.80354457294999

Śledź GAOFEN 12 (02) w czasie rzeczywistym z AllMySat

Download on the App Store